| time (UTC) | temp F | wind direction | speed MPH | gust MPH | rain 1hr in | rain 24hr in | rain mn in | humidity % | barometer mb |
| 20260504140858 | 72 | 214 | 7.0 | 13.0 | 0.00 | 0.00 | 0.00 | 53 | 467.2 |
| 20260504100321 | 74 | 198 | 2.0 | 9.0 | 0.00 | 0.00 | 0.00 | 37 | 737.2 |
| 20260504081832 | 71 | 128 | 1.0 | 5.0 | 0.00 | 0.00 | 0.00 | 41 | 578.6 |
| 20260504080831 | 71 | 122 | 0.0 | 3.0 | 0.00 | 0.00 | 0.00 | 41 | 615.3 |
| 20260504050242 | 55 | 0 | 0.0 | 0.0 | 0.00 | 0.00 | 0.00 | 75 | 630.2 |
| 20260504044802 | 54 | 0 | 0.0 | 3.0 | 0.00 | 0.00 | 0.00 | 75 | 455.9 |
| 20260504043756 | 54 | 0 | 0.0 | 0.0 | 0.00 | 0.00 | 0.00 | 74 | 465.7 |
| 20260504042757 | 54 | 0 | 0.0 | 0.0 | 0.00 | 0.00 | 0.00 | 75 | 484.3 |
| 20260504041759 | 53 | 0 | 0.0 | 0.0 | 0.00 | 0.00 | 0.00 | 75 | 931.1 |
| 20260504040754 | 54 | 0 | 0.0 | 0.0 | 0.00 | 0.00 | 0.00 | 74 | 813.5 |
| 20260504035754 | 54 | 0 | 0.0 | 0.0 | 0.00 | 0.00 | 0.00 | 74 | 632.7 |
| 20260504034755 | 54 | 0 | 0.0 | 0.0 | 0.00 | 0.00 | 0.00 | 74 | 471.4 |
| 20260504033749 | 53 | 0 | 0.0 | 0.0 | 0.00 | 0.00 | 0.00 | 74 | 483.8 |
| 20260504032748 | 53 | 0 | 0.0 | 0.0 | 0.00 | 0.00 | 0.00 | 74 | 882.2 |
| 20260504031750 | 54 | 0 | 0.0 | 0.0 | 0.00 | 0.00 | 0.00 | 74 | 468.0 |
| 20260504031221 | 54 | 0 | 0.0 | 0.0 | 0.00 | 0.00 | 0.00 | 72 | 467.7 |
| 20260504025745 | 54 | 0 | 0.0 | 0.0 | 0.00 | 0.00 | 0.00 | 72 | 552.9 |
| 20260504024746 | 54 | 0 | 0.0 | 4.0 | 0.00 | 0.00 | 0.00 | 72 | 913.3 |
| 20260504023742 | 54 | 108 | 0.0 | 0.0 | 0.00 | 0.00 | 0.00 | 72 | 490.3 |
| 20260504022742 | 55 | 109 | 0.0 | 0.0 | 0.00 | 0.00 | 0.00 | 72 | 695.4 |
| 20260504021742 | 55 | 109 | 0.0 | 3.0 | 0.00 | 0.00 | 0.00 | 72 | 409.9 |
| 20260504020739 | 55 | 109 | 0.0 | 3.0 | 0.00 | 0.00 | 0.00 | 73 | 461.2 |
| 20260504015736 | 55 | 163 | 0.0 | 0.0 | 0.00 | 0.00 | 0.00 | 72 | 468.5 |
| 20260504014738 | 55 | 163 | 0.0 | 0.0 | 0.00 | 0.00 | 0.00 | 71 | 446.0 |
| 20260504013734 | 55 | 163 | 0.0 | 0.0 | 0.00 | 0.00 | 0.00 | 72 | 595.9 |
| 20260504012734 | 55 | 163 | 0.0 | 0.0 | 0.00 | 0.00 | 0.00 | 72 | 466.5 |
| 20260504011732 | 56 | 163 | 0.0 | 0.0 | 0.00 | 0.00 | 0.00 | 71 | 468.1 |
| 20260504010729 | 56 | 163 | 0.0 | 0.0 | 0.00 | 0.00 | 0.00 | 71 | 465.4 |
| 20260504010206 | 56 | 163 | 0.0 | 0.0 | 0.00 | 0.00 | 0.00 | 70 | 476.9 |
| 20260504004731 | 57 | 163 | 0.0 | 0.0 | 0.00 | 0.00 | 0.00 | 70 | 610.6 |
| 20260504003724 | 57 | 163 | 0.0 | 0.0 | 0.00 | 0.00 | 0.00 | 69 | 919.9 |
| 20260504002726 | 57 | 163 | 0.0 | 0.0 | 0.00 | 0.00 | 0.00 | 69 | 465.5 |
| 20260504001726 | 56 | 163 | 0.0 | 0.0 | 0.00 | 0.00 | 0.00 | 70 | 467.9 |
| 20260504000722 | 57 | 163 | 0.0 | 0.0 | 0.00 | 0.00 | 0.00 | 69 | 514.3 |
| 20260503235722 | 58 | 163 | 0.0 | 0.0 | 0.00 | 0.00 | 0.00 | 68 | 501.5 |
| 20260503234722 | 58 | 163 | 0.0 | 0.0 | 0.00 | 0.00 | 0.00 | 68 | 425.1 |
| 20260503233725 | 57 | 163 | 0.0 | 0.0 | 0.00 | 0.00 | 0.00 | 68 | 1011.9 |
| 20260503232719 | 58 | 163 | 0.0 | 0.0 | 0.00 | 0.00 | 0.00 | 68 | 887.7 |
| 20260503231719 | 58 | 163 | 0.0 | 0.0 | 0.00 | 0.00 | 0.00 | 68 | 1029.2 |
| 20260503230720 | 58 | 163 | 0.0 | 0.0 | 0.00 | 0.00 | 0.00 | 68 | 468.7 |
| 20260503225716 | 58 | 163 | 0.0 | 0.0 | 0.00 | 0.00 | 0.00 | 68 | 505.6 |
| 20260503224715 | 58 | 163 | 0.0 | 0.0 | 0.00 | 0.00 | 0.00 | 67 | 462.3 |
| 20260503223716 | 58 | 163 | 0.0 | 0.0 | 0.00 | 0.00 | 0.00 | 67 | 866.9 |
| 20260503222711 | 58 | 163 | 0.0 | 0.0 | 0.00 | 0.00 | 0.00 | 67 | 468.0 |
| 20260503221711 | 58 | 163 | 0.0 | 0.0 | 0.00 | 0.00 | 0.00 | 66 | 927.8 |
| 20260503220712 | 59 | 163 | 0.0 | 0.0 | 0.00 | 0.00 | 0.00 | 65 | 467.9 |
| 20260503215706 | 59 | 163 | 0.0 | 0.0 | 0.00 | 0.00 | 0.00 | 64 | 465.8 |
| 20260503214704 | 59 | 163 | 0.0 | 0.0 | 0.00 | 0.00 | 0.00 | 64 | 640.2 |
| 20260503213705 | 59 | 163 | 0.0 | 0.0 | 0.00 | 0.00 | 0.00 | 64 | 484.7 |
| 20260503213148 | 59 | 163 | 0.0 | 0.0 | 0.00 | 0.00 | 0.00 | 63 | 467.2 |
| 20260503211705 | 59 | 163 | 0.0 | 0.0 | 0.00 | 0.00 | 0.00 | 63 | 462.1 |
| 20260503210706 | 60 | 163 | 0.0 | 0.0 | 0.00 | 0.00 | 0.00 | 62 | 682.9 |
| 20260503210149 | 61 | 163 | 0.0 | 0.0 | 0.00 | 0.00 | 0.00 | 60 | 468.0 |
| 20260503204705 | 62 | 163 | 0.0 | 0.0 | 0.00 | 0.00 | 0.00 | 59 | 492.2 |
| 20260503203703 | 62 | 163 | 0.0 | 0.0 | 0.00 | 0.00 | 0.00 | 57 | 468.0 |
| 20260503202702 | 62 | 163 | 0.0 | 0.0 | 0.00 | 0.00 | 0.00 | 57 | 551.0 |
| 20260503201704 | 62 | 163 | 0.0 | 0.0 | 0.00 | 0.00 | 0.00 | 56 | 471.1 |
| 20260503200703 | 63 | 163 | 0.0 | 0.0 | 0.00 | 0.00 | 0.00 | 54 | 550.0 |
| 20260503195703 | 63 | 163 | 0.0 | 0.0 | 0.00 | 0.00 | 0.00 | 53 | 467.6 |
| 20260503194711 | 64 | 163 | 0.0 | 0.0 | 0.00 | 0.00 | 0.00 | 52 | 448.3 |
| 20260503193705 | 64 | 163 | 0.0 | 0.0 | 0.00 | 0.00 | 0.00 | 51 | 460.3 |
| 20260503192704 | 64 | 163 | 0.0 | 0.0 | 0.00 | 0.00 | 0.00 | 51 | 463.5 |
| 20260503191706 | 65 | 163 | 0.0 | 0.0 | 0.00 | 0.00 | 0.00 | 50 | 468.0 |
| 20260503190659 | 65 | 163 | 0.0 | 0.0 | 0.00 | 0.00 | 0.00 | 50 | 461.9 |
| 20260503185701 | 65 | 163 | 0.0 | 0.0 | 0.00 | 0.00 | 0.00 | 49 | 463.5 |
| 20260503184653 | 66 | 163 | 0.0 | 0.0 | 0.00 | 0.00 | 0.00 | 49 | 419.0 |
| 20260503183654 | 67 | 163 | 0.0 | 0.0 | 0.00 | 0.00 | 0.00 | 48 | 465.7 |
| 20260503182654 | 67 | 163 | 0.0 | 0.0 | 0.00 | 0.00 | 0.00 | 47 | 523.8 |
| 20260503182326 | 68 | 163 | 0.0 | 0.0 | 0.00 | 0.00 | 0.00 | 46 | 918.4 |
| 20260503182237 | 68 | 163 | 0.0 | 0.0 | 0.00 | 0.00 | 0.00 | 45 | 634.7 |
| 20260503175652 | 69 | 163 | 0.0 | 0.0 | 0.00 | 0.00 | 0.00 | 45 | 484.9 |
| 20260503174645 | 69 | 163 | 1.0 | 5.0 | 0.00 | 0.00 | 0.00 | 44 | 514.6 |
| 20260503174123 | 69 | 161 | 0.0 | 4.0 | 0.00 | 0.00 | 0.00 | 43 | 467.9 |
| 20260503172641 | 70 | 182 | 0.0 | 4.0 | 0.00 | 0.00 | 0.00 | 44 | 465.6 |
| 20260503172124 | 70 | 171 | 2.0 | 5.0 | 0.00 | 0.00 | 0.00 | 44 | 498.6 |
| 20260503171118 | 70 | 190 | 4.0 | 8.0 | 0.00 | 0.00 | 0.00 | 43 | 468.2 |